User: anonymous   Login
Location: Unspecified
(43.4680°N, 87.1740°E)
Time: 13:42:50
(UTC+00:00)
Language:

ADEOS II - Orbit

View from above orbital plane
View from above orbital plane
View from above satellite
View from above satellite

Ground track
Ground track

The orbit data is extracted from the following two-line orbital elements,

1 27597U 02056A   21170.82806514  .00000026  00000-0  28083-4 0  9991
2 27597  98.5646 116.0934 0001580  45.6045 314.5265 14.27504352964224
Epoch (UTC): 19 June 2021 19:52:24
Eccentricity: 0.0001580
inclination: 98.5646°
perigee height: 799 km
apogee height: 801 km
right ascension of ascending node: 116.0934°
argument of perigee: 45.6045°
revolutions per day: 14.27504352
mean anomaly at epoch: 314.5265°
orbit number at epoch: 96422

The dashed part of the orbit path shows where the satellite is in the earth's shadow,  

DLR